Temp
84 84 83 84 84 84 84 84 84 83 83 83 83 84 84 84 84 84 84 84 84 84 84 85 85 85 85 85 85 85 84 84 84 84 84 84 83 83 83 84 85 85 83
87 85 83 84 84 84 84 84 84 84 84 84 84 84 84 84 84 84 84 84 85 85 85 85 85 85 85 85 85 85 84 84 84 84 83 84 84 84 84 85 86 84 83
87 86 85 83 84 84 84 84 84 84 84 84 84 84 83 84 84 84 84 84 85 85 85 85 85 85 85 84 85 85 84 84 85 83 82 74 79 84 84 85 84 84 83
91 88 86 83 84 84 84 84 84 84 84 84 84 84 83 83 83 84 84 84 85 85 85 85 85 85 85 84 84 85 84 84 84 85 75 72 73 83 84 84 84 83 83
92 92 86 83 84 84 84 84 84 84 84 84 83 83 83 83 84 84 84 84 84 84 84 85 85 85 84 84 84 84 84 84 84 85 75 70 68 82 84 84 83 83 84
94 92 84 83 84 84 84 84 84 84 83 84 84 84 84 84 84 84 84 84 84 84 84 85 85 85 84 84 84 84 84 84 84 84 80 71 72 82 84 84 85 83 83
93 88 86 83 84 84 84 84 84 84 84 84 84 84 84 84 84 84 84 83 84 84 84 84 84 85 84 84 84 84 84 84 84 85 86 75 77 81 84 83 84 83 83
92 90 87 84 84 84 84 84 84 84 84 84 84 84 84 84 84 83 84 84 84 84 84 84 84 84 84 84 84 84 84 84 88 86 86 84 81 83 84 83 83 83 82
96 91 88 87 85 84 84 84 84 84 84 84 84 84 84 84 84 84 84 84 84 84 84 84 84 84 84 84 84 84 84 84 84 78 83 83 82 83 83 83 83 83 83
96 93 90 88 88 86 86 84 84 84 84 84 84 84 84 84 84 84 83 84 84 84 84 84 83 84 84 84 84 84 84 84 85 81 84 83 82 83 84 83 83 83 82
97 95 95 90 88 87 86 86 84 84 84 84 85 84 85 86 85 86 85 84 85 84 84 84 84 83 84 83 80 84 84 84 85 78 84 81 82 83 84 83 83 82 82
97 98 95 94 92 92 93 86 86 87 86 85 86 84 85 85 80 87 86 84 85 85 85 84 84 84 84 75 73 79 83 84 84 83 84 81 82 83 83 83 82 82 82
98 99 95 95 93 93 93 86 89 90 89 87 86 83 88 86 84 89 86 86 83 84 86 85 85 78 82 76 77 80 86 85 86 87 84 81 82 83 83 83 82 82 82
97 98 100 98 94 94 94 91 92 91 87 87 88 87 85 87 83 85 86 86 85 84 85 84 82 74 77 80 81 82 88 88 88 86 81 81 82 82 83 82 82 82 82
96 97 98 98 94 92 91 90 89 91 90 91 87 86 86 86 86 89 89 89 89 88 88 85 85 81 80 80 79 83 88 88 90 89 82 82 82 82 82 83 82 82 82
97 97 99 96 93 95 92 92 90 90 93 92 89 88 86 88 86 88 88 88 88 89 89 86 79 75 81 83 82 82 88 88 91 90 85 82 81 81 81 82 82 82 82
97 99 97 95 93 91 90 90 90 90 94 91 89 88 87 86 87 87 86 87 88 88 89 86 81 81 83 87 80 77 76 86 90 88 88 87 82 81 81 82 82 82 82
98 95 96 98 95 90 88 88 88 89 90 90 90 89 88 87 86 86 86 86 88 88 86 87 87 86 85 84 77 76 75 72 73 76 88 89 86 86 81 81 81 81 81
98 94 93 93 95 90 88 88 88 88 89 90 91 91 87 89 88 86 87 87 85 86 87 87 87 85 85 87 87 79 74 71 72 76 76 87 89 88 84 82 81 81 81
98 95 93 93 92 88 88 87 89 89 89 91 91 92 91 90 88 86 86 85 86 86 84 84 84 86 86 85 92 83 77 72 72 72 74 85 90 90 90 84 80 81 81
98 94 91 91 88 89 88 86 86 87 89 90 92 90 90 91 88 85 86 86 84 83 83 83 83 81 79 81 81 82 75 73 72 72 74 72 80 81 81 83 81 82 81
98 93 91 90 89 88 89 88 89 89 90 92 92 90 90 89 88 88 84 84 84 83 81 82 81 81 78 82 77 76 72 77 77 77 79 77 75 74 75 77 76 82 82
98 95 92 90 89 89 88 89 88 88 89 89 90 90 89 88 86 86 84 83 81 82 84 81 82 79 79 80 80 75 71 71 77 78 76 75 72 71 72 73 72 77 80
100 100 95 91 88 90 88 87 85 86 85 88 88 89 89 88 86 85 85 84 81 84 81 82 84 80 78 77 79 82 80 79 73 71 74 74 71 71 71 71 74 75 78
103 102 99 91 90 89 88 87 87 84 88 90 90 87 85 86 85 86 85 84 82 83 82 81 81 80 82 75 78 79 77 75 73 70 70 73 73 73 72 73 72 72 70
105 104 101 91 88 89 89 87 84 84 86 86 86 85 85 86 86 84 84 83 82 81 81 82 80 80 79 77 75 75 79 72 72 69 67 71 74 77 74 70 71 71 71
MSLP
1011.91 1012.41 1012.87 1013.19 1013.60 1013.81 1014.29 1014.61 1014.86 1015.17 1015.44 1015.80 1016.06 1016.24 1016.44 1016.58 1016.55 1016.62 1016.71 1016.84 1016.97 1017.04 1016.97 1016.98 1017.04 1017.09 1017.11 1017.18 1017.32 1017.38 1017.71 1018.10 1018.33 1018.19 1018.25 1018.33 1018.52 1018.61 1018.46 1018.33 1018.27 1018.81 1019.13
1011.37 1012.24 1012.90 1013.25 1013.59 1013.88 1014.22 1014.66 1014.95 1015.29 1015.57 1015.90 1016.12 1016.44 1016.65 1016.77 1016.84 1016.91 1016.97 1017.06 1017.10 1017.09 1017.03 1017.01 1017.04 1017.09 1017.07 1017.10 1017.12 1017.22 1017.52 1017.86 1018.31 1018.34 1018.54 1018.77 1018.65 1018.55 1018.50 1018.24 1018.44 1019.14 1019.34
1011.25 1012.21 1012.91 1013.43 1013.76 1013.98 1014.33 1014.72 1015.09 1015.40 1015.67 1015.95 1016.19 1016.51 1016.77 1016.84 1016.92 1017.16 1017.16 1017.23 1017.21 1017.16 1017.05 1016.98 1017.04 1017.16 1017.12 1017.12 1017.03 1017.10 1017.36 1017.89 1018.03 1018.63 1019.07 1019.76 1019.87 1019.07 1018.72 1018.48 1018.74 1019.22 1019.49
1010.89 1012.13 1012.92 1013.65 1013.81 1014.10 1014.48 1014.89 1015.27 1015.49 1015.77 1016.04 1016.28 1016.59 1016.78 1016.86 1016.95 1017.16 1017.15 1017.24 1017.23 1017.16 1017.16 1017.15 1017.21 1017.27 1017.29 1017.32 1017.15 1017.10 1017.24 1018.01 1017.79 1018.69 1019.15 1019.72 1020.85 1019.90 1019.04 1018.90 1018.91 1019.35 1019.70
1010.87 1011.73 1012.97 1013.65 1013.92 1014.27 1014.70 1015.07 1015.36 1015.60 1015.81 1016.09 1016.28 1016.72 1016.82 1017.04 1017.10 1017.18 1017.18 1017.22 1017.21 1017.21 1017.19 1017.19 1017.31 1017.45 1017.51 1017.47 1017.42 1017.32 1017.32 1017.87 1018.04 1018.09 1018.88 1021.00 1021.70 1019.91 1019.28 1019.33 1019.27 1019.55 1019.73
1010.52 1011.52 1013.32 1013.74 1014.06 1014.48 1014.91 1015.20 1015.37 1015.64 1015.90 1016.15 1016.36 1016.71 1016.84 1016.98 1017.18 1017.21 1017.18 1017.22 1017.26 1017.22 1017.23 1017.14 1017.19 1017.34 1017.51 1017.50 1017.50 1017.50 1017.69 1017.67 1018.04 1018.22 1018.30 1019.33 1020.03 1018.83 1019.30 1019.37 1019.43 1019.69 1020.02
1010.54 1012.13 1013.12 1013.74 1014.24 1014.71 1015.09 1015.34 1015.59 1015.86 1016.06 1016.24 1016.47 1016.67 1016.84 1016.99 1017.12 1017.18 1017.19 1017.27 1017.28 1017.31 1017.23 1017.13 1017.15 1017.24 1017.48 1017.54 1017.47 1017.49 1017.56 1017.79 1017.63 1017.68 1017.01 1018.70 1018.23 1018.69 1019.08 1019.42 1019.44 1019.63 1020.04
1010.65 1011.98 1013.27 1014.06 1014.43 1014.78 1015.13 1015.41 1015.66 1015.89 1016.04 1016.25 1016.45 1016.62 1016.79 1016.90 1017.04 1017.08 1017.14 1017.21 1017.28 1017.24 1017.18 1017.11 1017.10 1017.22 1017.53 1017.69 1017.65 1017.53 1017.44 1017.47 1017.21 1017.09 1017.20 1017.45 1017.92 1018.33 1018.88 1019.45 1019.34 1019.56 1019.96
1010.02 1011.53 1013.01 1013.84 1014.38 1014.78 1015.10 1015.38 1015.65 1015.81 1016.00 1016.21 1016.40 1016.62 1016.72 1016.86 1016.87 1016.93 1017.00 1017.04 1017.09 1017.09 1017.19 1017.27 1017.41 1017.27 1017.18 1017.40 1017.54 1017.57 1017.38 1017.30 1017.52 1017.04 1017.54 1017.72 1017.90 1018.26 1018.62 1019.04 1019.25 1019.60 1019.94
1009.70 1011.02 1012.05 1013.21 1013.98 1014.46 1014.84 1015.21 1015.48 1015.73 1015.95 1016.16 1016.34 1016.45 1016.52 1016.53 1016.58 1016.63 1016.80 1016.83 1016.91 1017.06 1017.30 1017.41 1017.41 1017.18 1016.98 1017.01 1017.20 1017.39 1017.29 1017.33 1017.32 1017.37 1017.63 1017.59 1017.78 1018.09 1018.33 1018.60 1019.04 1019.43 1019.71
1009.16 1010.12 1011.09 1012.27 1012.91 1013.47 1014.04 1014.80 1015.17 1015.40 1015.72 1015.91 1016.08 1016.16 1016.12 1016.15 1016.27 1016.38 1016.26 1016.36 1016.53 1016.79 1017.18 1017.33 1017.35 1017.33 1017.30 1017.10 1016.93 1016.92 1017.14 1016.92 1016.74 1016.93 1017.30 1017.18 1017.61 1017.77 1018.06 1018.54 1018.95 1019.21 1019.48
1008.68 1009.19 1010.42 1011.41 1012.18 1012.56 1012.96 1013.84 1014.42 1014.74 1015.02 1015.26 1015.27 1015.56 1015.60 1015.55 1015.74 1015.83 1015.77 1015.86 1016.10 1016.48 1016.92 1017.39 1017.27 1017.19 1017.25 1017.20 1016.54 1016.76 1016.60 1016.28 1016.06 1016.41 1017.03 1017.46 1017.46 1017.57 1017.84 1018.34 1018.72 1018.96 1019.16
1008.56 1008.69 1010.05 1010.59 1011.45 1011.87 1012.10 1013.21 1013.31 1013.47 1013.82 1014.33 1014.59 1015.03 1014.76 1015.10 1015.33 1014.99 1015.24 1015.59 1015.96 1016.17 1016.39 1016.79 1017.09 1017.41 1016.89 1016.84 1016.77 1016.59 1015.97 1015.71 1015.58 1016.23 1016.64 1016.91 1017.14 1017.16 1017.48 1017.84 1018.33 1018.67 1018.93
1008.50 1008.83 1009.26 1009.83 1010.66 1011.20 1011.60 1012.11 1012.36 1012.74 1013.11 1013.61 1014.00 1014.34 1014.60 1014.60 1014.65 1014.72 1014.71 1014.81 1015.06 1015.36 1015.53 1015.94 1016.50 1016.43 1016.75 1016.80 1016.58 1016.40 1015.68 1015.41 1014.89 1015.54 1016.35 1016.60 1016.64 1016.84 1017.28 1017.62 1018.01 1018.34 1018.61
1008.18 1008.80 1009.21 1009.62 1010.19 1010.88 1011.30 1011.55 1012.10 1012.27 1012.50 1012.77 1013.48 1014.01 1014.31 1014.44 1014.25 1013.89 1013.93 1014.12 1014.15 1014.38 1014.59 1015.10 1015.22 1015.56 1016.01 1016.76 1016.24 1016.10 1015.86 1015.30 1014.93 1014.89 1015.83 1016.22 1016.28 1016.59 1016.94 1017.31 1017.71 1018.06 1018.37
1007.86 1008.54 1008.94 1009.72 1010.49 1010.89 1011.43 1011.89 1012.11 1012.22 1012.04 1012.38 1013.12 1013.36 1013.72 1013.91 1013.92 1013.83 1013.96 1013.95 1013.98 1013.97 1014.09 1014.44 1015.44 1016.40 1015.74 1015.92 1015.91 1015.95 1015.23 1015.13 1014.82 1014.94 1015.52 1015.88 1016.05 1016.34 1016.68 1017.04 1017.39 1017.66 1018.01
1007.88 1008.35 1008.88 1009.73 1010.58 1011.28 1011.70 1012.07 1012.31 1012.37 1012.18 1012.34 1012.66 1013.03 1013.50 1013.77 1014.03 1014.03 1014.22 1014.04 1013.79 1013.70 1013.77 1014.13 1014.80 1015.02 1014.65 1014.76 1015.71 1015.43 1015.53 1015.20 1014.71 1014.94 1015.11 1015.22 1015.99 1016.26 1016.39 1016.60 1016.97 1017.36 1017.64
1007.63 1008.25 1008.89 1009.53 1010.19 1011.20 1011.75 1012.17 1012.39 1012.48 1012.32 1012.29 1012.45 1012.74 1013.03 1013.41 1013.86 1014.09 1014.26 1014.01 1013.54 1013.31 1013.25 1013.54 1013.78 1014.05 1014.26 1014.48 1014.77 1014.51 1015.17 1015.48 1016.28 1016.04 1015.02 1014.78 1015.36 1015.66 1016.09 1016.30 1016.54 1016.76 1017.09
1007.34 1008.03 1008.83 1009.42 1009.85 1010.72 1011.53 1012.04 1012.24 1012.18 1012.28 1012.22 1012.13 1012.21 1012.44 1012.83 1013.28 1013.80 1013.83 1013.74 1013.47 1013.24 1013.15 1013.04 1013.01 1013.22 1013.39 1013.51 1013.84 1014.47 1014.92 1015.64 1014.71 1015.66 1015.61 1014.48 1014.30 1014.56 1015.30 1015.74 1016.00 1016.27 1016.52
1007.15 1007.80 1008.58 1009.16 1009.59 1010.27 1011.00 1011.62 1011.82 1011.96 1012.01 1011.89 1011.89 1011.72 1011.75 1012.27 1012.71 1013.17 1013.53 1013.50 1013.28 1013.34 1013.27 1013.09 1012.96 1012.90 1013.20 1013.57 1013.48 1014.53 1015.11 1014.78 1014.69 1014.65 1015.19 1014.55 1013.82 1013.82 1013.98 1014.53 1015.54 1015.97 1016.12
1006.68 1007.51 1008.26 1008.86 1009.38 1009.89 1010.45 1011.09 1011.35 1011.31 1011.34 1011.36 1011.36 1011.19 1011.31 1011.54 1012.04 1012.57 1013.00 1013.16 1013.11 1013.28 1013.30 1013.20 1013.12 1013.30 1013.35 1013.26 1013.63 1013.94 1015.00 1014.81 1014.67 1014.18 1014.80 1013.45 1014.97 1014.74 1014.97 1014.16 1014.20 1014.52 1014.81
1005.98 1006.85 1007.64 1008.36 1008.99 1009.58 1009.95 1010.29 1010.42 1010.60 1010.59 1010.54 1010.52 1010.42 1010.61 1010.97 1011.32 1011.74 1012.36 1012.48 1012.62 1012.74 1012.86 1012.96 1013.06 1013.24 1013.42 1013.27 1013.65 1014.14 1014.48 1015.11 1014.46 1013.87 1014.04 1014.60 1014.87 1014.13 1014.75 1014.51 1014.52 1013.86 1013.30
1005.24 1006.05 1006.94 1007.66 1008.22 1008.85 1009.38 1009.78 1009.97 1010.17 1010.06 1009.97 1009.90 1010.05 1010.22 1010.36 1010.68 1011.06 1011.36 1011.89 1012.03 1012.18 1012.18 1012.41 1012.54 1012.86 1012.98 1013.06 1013.10 1013.65 1013.91 1013.88 1013.67 1013.65 1014.40 1014.42 1013.64 1013.67 1013.30 1013.75 1014.44 1014.12 1014.15
1004.36 1005.13 1005.94 1006.73 1007.45 1008.03 1008.73 1009.19 1009.34 1009.57 1009.61 1009.69 1009.67 1009.56 1009.80 1010.01 1010.39 1010.62 1010.95 1011.47 1011.71 1011.72 1011.59 1011.66 1011.83 1012.10 1012.55 1012.71 1012.65 1012.43 1012.60 1012.85 1013.37 1014.00 1014.55 1014.58 1014.61 1014.37 1013.51 1012.76 1012.88 1014.31 1014.73
1003.14 1003.86 1004.77 1005.72 1006.57 1007.15 1007.75 1008.39 1008.91 1009.22 1009.23 1009.00 1009.01 1009.05 1009.27 1009.47 1009.89 1010.10 1010.45 1010.94 1011.24 1011.45 1011.42 1011.40 1011.23 1011.27 1011.38 1011.89 1012.22 1012.31 1012.11 1012.24 1012.90 1014.05 1014.46 1014.75 1014.80 1014.23 1013.39 1012.63 1013.86 1014.10 1012.92
1001.86 1002.74 1003.66 1004.80 1005.64 1006.36 1007.01 1007.73 1008.31 1008.57 1008.71 1008.81 1008.84 1008.86 1008.87 1008.89 1009.04 1009.34 1009.63 1009.90 1010.16 1010.52 1010.85 1010.91 1011.01 1011.10 1011.19 1010.92 1011.52 1011.62 1011.62 1011.87 1012.30 1013.26 1014.07 1013.91 1013.37 1013.03 1013.15 1013.11 1013.03 1013.56 1013.46
Wind_Speed
15 14 14 13 11 13 14 14 14 14 14 13 11 11 10 10 10 11 11 10 8 6 5 5 5 5 4 6 7 7 7 8 9 9 11 13 12 12 11 13 15 13 13
18 16 15 13 12 14 14 14 14 14 13 12 11 10 10 10 9 9 10 9 9 7 5 5 5 5 5 6 5 4 3 4 5 5 6 8 10 10 8 5 12 12 12
19 16 15 13 13 14 13 14 14 13 12 11 11 9 8 8 7 6 7 6 6 5 4 4 4 5 5 5 4 2 1 1 0 5 10 10 10 9 9 15 17 14 12
20 17 16 13 13 13 12 13 12 12 11 11 9 7 6 6 6 5 5 4 4 4 3 2 3 3 4 4 3 2 0 1 4 4 10 11 10 4 12 14 14 13 11
19 17 16 14 14 13 12 12 12 11 11 10 8 7 5 6 5 4 3 3 2 1 2 1 2 3 4 3 3 1 2 2 4 5 17 15 11 5 8 10 12 12 7
19 20 18 15 14 13 12 11 11 11 10 10 8 6 4 3 3 3 2 2 2 1 0 1 2 3 3 2 2 1 2 4 3 3 4 18 19 8 9 9 11 13 10
20 19 17 15 13 13 12 11 10 10 9 8 7 6 4 3 3 1 2 2 2 2 3 3 3 3 2 1 0 2 4 6 7 3 6 16 8 13 13 10 12 11 10
22 18 15 14 13 13 11 10 10 9 9 7 7 7 6 4 4 4 4 5 5 5 5 5 4 3 3 2 2 3 5 6 9 5 7 12 17 16 13 11 13 13 11
22 20 15 13 12 12 11 11 9 9 9 8 6 7 6 5 6 6 6 7 9 8 7 5 4 4 4 3 3 4 6 8 3 3 3 5 16 15 16 12 12 11 11
19 20 17 14 12 11 11 12 11 9 8 7 8 7 8 9 10 11 10 9 9 8 6 6 3 5 5 5 6 7 9 10 7 2 4 5 14 16 15 13 11 11 10
16 17 18 18 15 11 10 12 13 13 10 8 8 10 10 7 9 11 14 15 12 10 8 8 8 7 6 5 12 11 11 7 6 5 3 15 15 15 14 12 11 10 10
12 17 16 17 15 13 12 13 12 12 10 10 10 10 8 4 6 10 12 16 14 12 11 9 10 9 5 2 6 12 6 9 5 8 6 15 15 14 14 12 12 11 11
10 10 19 18 17 14 8 10 7 7 8 7 7 10 5 7 8 7 6 7 6 11 6 10 6 6 8 8 7 8 8 6 6 8 12 17 16 15 14 13 13 11 12
12 9 8 15 17 15 9 9 6 4 5 7 7 6 3 2 5 7 6 8 9 6 8 8 7 11 7 11 10 9 6 5 3 7 11 18 15 14 13 12 12 12 13
14 11 11 4 4 8 4 4 5 5 6 9 9 7 5 5 5 3 3 3 4 7 5 7 6 8 6 2 2 6 8 7 4 2 6 16 16 15 15 15 15 15 14
12 12 11 10 6 3 3 2 2 4 1 1 5 11 11 5 2 3 2 3 4 4 3 4 6 5 6 7 9 5 6 7 3 3 6 8 17 17 16 15 15 16 17
10 12 9 9 11 5 4 3 2 4 5 3 3 5 8 5 4 2 4 4 5 5 5 5 8 11 6 3 9 4 9 10 2 5 3 6 9 15 18 18 16 15 16
11 10 9 9 13 10 6 4 4 5 4 3 4 4 8 8 6 4 5 6 5 5 4 6 5 6 6 6 5 6 5 7 7 13 5 3 7 8 13 17 16 17 17
8 11 9 9 11 13 8 7 7 7 5 5 4 6 8 9 8 7 6 7 6 4 5 5 5 4 3 1 7 5 3 8 7 6 11 8 5 4 7 15 19 18 19
10 11 8 8 6 11 10 7 7 7 7 7 7 7 6 10 10 7 7 7 5 5 5 5 4 3 1 2 7 7 3 3 3 5 8 12 9 10 9 12 9 9 18
14 11 13 10 9 6 7 9 8 8 8 8 8 8 7 7 11 10 8 7 7 7 5 5 1 2 3 3 2 5 4 7 7 7 8 3 10 12 15 9 10 9 10
15 16 13 12 10 9 7 6 7 8 8 8 8 8 9 7 7 9 10 9 8 7 8 8 6 4 3 3 3 2 3 4 9 12 10 7 7 3 6 9 7 7 9
13 15 14 14 13 12 11 7 6 6 6 6 6 3 6 10 9 9 8 10 9 8 7 10 9 8 7 6 6 4 3 4 4 3 4 5 5 3 3 5 3 5 5
15 15 15 16 15 13 13 10 8 8 9 8 7 6 6 6 9 9 9 9 9 9 8 8 7 8 7 8 5 7 5 5 4 3 2 2 2 5 9 7 1 4 13
16 15 15 15 15 14 13 13 9 10 8 6 6 6 9 7 9 10 11 10 11 9 10 10 9 9 8 7 8 6 6 5 7 2 4 2 5 8 5 4 6 7 9
13 14 14 15 14 14 11 13 12 10 7 5 6 5 3 6 8 12 13 13 13 11 12 11 12 14 10 8 9 10 8 4 5 4 6 12 6 4 4 4 3 3 2
Wind_Direction
139 138 141 141 145 143 145 139 135 132 133 131 125 123 117 113 107 99 96 97 100 118 110 71 64 65 41 39 46 60 73 91 105 118 118 125 130 137 144 147 129 100 100
133 140 140 140 141 145 149 146 140 142 142 142 137 136 130 128 115 101 99 88 89 97 87 74 66 62 48 45 33 76 73 82 93 113 108 116 122 113 95 116 99 107 103
137 137 143 145 140 138 140 144 143 150 149 151 148 152 154 146 132 115 99 96 90 81 80 68 76 74 60 46 42 41 75 98 114 95 63 7 337 121 102 102 111 115 104
137 144 141 145 131 130 136 141 149 149 151 154 153 148 161 126 134 133 118 112 103 97 75 86 77 62 69 69 47 34 268 186 248 146 72 348 316 260 112 115 119 114 117
135 148 132 141 131 130 132 142 151 151 155 153 144 147 149 144 133 142 127 127 126 129 99 101 110 107 80 72 80 57 316 269 261 252 153 178 243 237 121 120 115 122 133
149 127 140 141 135 134 137 143 146 151 154 154 149 158 154 135 162 171 182 195 233 212 177 142 99 89 83 72 67 42 316 310 290 259 110 180 197 165 159 165 132 121 126
118 127 133 137 142 144 146 145 145 151 152 153 163 165 162 173 194 186 208 201 238 196 183 176 172 154 149 141 262 311 314 314 288 225 250 164 162 166 168 163 134 127 140
121 129 137 141 147 149 151 154 159 161 161 170 179 182 185 190 163 177 195 160 175 188 178 188 192 181 185 199 220 282 304 305 314 351 350 133 153 158 158 164 143 149 159
130 132 144 154 158 158 164 168 176 179 181 190 198 203 182 177 182 177 174 173 176 180 188 187 203 234 235 229 246 245 260 274 298 290 0 120 152 157 157 152 150 157 158
138 145 149 149 161 171 171 184 180 179 184 197 200 198 191 198 196 191 189 195 183 190 196 212 197 241 250 262 270 259 258 264 251 224 258 143 145 150 148 150 160 166 172
147 152 155 157 161 187 161 174 176 178 192 204 209 207 210 217 190 201 202 176 188 186 197 217 219 242 256 343 320 281 264 253 232 194 191 152 153 154 148 160 169 176 177
176 160 153 157 165 166 183 166 182 183 188 192 197 183 211 177 147 226 173 180 189 191 204 217 233 243 219 179 257 278 240 239 268 145 138 166 162 158 157 171 175 181 181
184 157 163 162 168 170 204 168 189 175 192 186 171 183 223 162 181 199 174 186 198 204 208 204 201 348 274 189 237 236 234 232 212 162 157 160 163 158 167 177 177 184 188
169 192 199 160 150 176 165 189 163 195 166 172 178 183 217 242 234 237 195 188 201 164 216 162 143 189 244 221 204 231 255 241 239 129 162 167 158 158 173 185 186 189 193
168 186 178 162 76 137 103 142 155 200 188 184 156 171 189 227 251 170 270 173 223 177 195 175 175 187 215 186 2 276 260 270 227 224 148 164 156 167 180 189 193 197 202
160 173 177 152 128 165 132 56 112 287 122 226 175 176 191 212 249 276 232 240 259 271 212 132 91 300 223 190 200 240 233 275 261 347 153 165 170 174 183 193 200 201 204
160 170 178 154 154 186 170 155 240 248 249 176 216 116 175 193 263 252 281 242 252 228 250 166 168 210 232 143 137 93 309 316 228 188 276 163 180 191 192 195 200 210 210
166 156 176 183 163 170 177 181 221 232 283 234 194 204 178 173 197 204 251 269 247 264 210 214 214 231 209 183 183 193 172 25 9 351 304 253 181 201 207 208 206 207 208
192 153 170 174 174 162 175 191 205 245 217 261 242 219 183 186 192 207 241 233 262 264 265 260 238 238 259 283 199 135 139 180 94 334 295 265 235 206 181 204 209 208 205
175 156 172 164 192 158 169 189 205 215 220 224 235 240 197 186 192 197 221 260 267 254 267 282 293 307 4 314 318 153 147 89 133 341 278 278 221 213 199 182 189 207 210
168 172 175 186 178 172 174 186 205 220 215 216 222 227 216 199 184 193 212 229 232 256 265 268 274 18 327 312 328 314 135 175 190 205 249 179 331 357 350 156 176 197 202
179 179 181 185 187 191 196 211 210 207 221 220 216 211 201 198 198 189 206 218 233 224 239 248 248 248 216 263 233 260 313 201 208 212 208 194 231 152 339 354 344 252 161
199 184 182 187 187 194 204 210 217 238 268 258 225 212 195 198 196 206 208 214 219 231 237 219 228 215 241 249 240 205 252 216 234 99 137 212 155 179 273 270 194 234 241
203 193 188 185 194 190 197 216 227 225 230 231 240 213 223 198 208 207 214 225 224 237 238 236 215 212 211 232 249 238 238 208 220 269 97 240 278 232 216 230 246 24 311
204 198 189 183 190 196 194 206 216 239 265 275 249 234 211 193 194 210 217 222 229 236 242 249 241 224 207 204 224 241 242 226 232 169 282 292 223 235 242 210 147 186 171
201 191 183 179 188 190 193 193 217 241 252 269 291 306 265 223 209 212 213 217 220 224 240 241 249 255 242 244 224 238 237 211 200 175 198 234 232 199 170 243 349 74 14